Weather History for Cincinnati, OH

Change the Weather History Date:

Friday, January 3, 2014

  Actual Average Record
Temperature  
Mean Temperature 10 °F -  
Max Temperature 17 °F 40 °F 69 °F (2004)
Min Temperature 3 °F 26 °F 2 °F (1979)
Degree Days  
Heating Degree Days 55    
Moisture  
Dew Point 3 °F    
Average Humidity 69    
Maximum Humidity 77    
Minimum Humidity 61    
Precipitation  
Precipitation 0.00 in - - ()
Sea Level Pressure  
Sea Level Pressure 30.46 in    
Wind  
Wind Speed 5 mph (SW)    
Max Wind Speed 10 mph    
Max Gust Speed -    
Visibility 10 miles    
Events      
Averages and records for this station are not official NWS values.
T = Trace of Precipitation, MM = Missing Value Source: NWS Daily Summary

Daily Weather History Graph

Daily Weather History Graph

Search for Another Location

Airport:

Trip Planner

Search our weather history database for the weather conditions in past years. The results will help you decide how hot, cold, wet, or windy it might be!

Date:

Astronomy

Jan. 03, 2014 Rise Set
Actual Time 7:57 AM EST 5:27 PM EST
Civil Twilight 7:27 AM EST 5:57 PM EST
Nautical Twilight 6:53 AM EST 6:30 PM EST
Astronomical Twilight 6:21 AM EST 7:03 PM EST
Moon 9:23 AM EST (1/3) 8:34 PM EST (1/3)
Length of Visible Light 10h 30m
Length of Day
9h 30m
Waxing Crescent, 8% of the Moon is Illuminated
Jan 3
Waxing Crescent
Jan 7
First Quarter
Jan 15
Full
Jan 24
Last Quarter
Jan 30
New

Hourly Weather History & Observations

Time (EST) Temp. Windchill Dew Point Humidity Pressure Visibility Wind Dir Wind Speed Gust Speed Precip Events Conditions
12:05 AM 12.2 °F -1.0 °F 3.2 °F 67% 30.31 in 10.0 mi NNW 10.4 mph - N/A   Scattered Clouds
12:53 AM 10.9 °F 0.2 °F 3.0 °F 70% 30.37 in 10.0 mi NNW 6.9 mph - N/A   Clear
1:53 AM 9.0 °F -2.2 °F 1.9 °F 73% 30.38 in 10.0 mi North 6.9 mph - N/A   Clear
2:53 AM 9.0 °F -2.2 °F 1.0 °F 70% 30.42 in 10.0 mi WNW 6.9 mph - N/A   Clear
3:53 AM 8.1 °F -2.0 °F 1.0 °F 73% 30.45 in 10.0 mi NW 5.8 mph - N/A   Clear
4:53 AM 7.0 °F -4.5 °F -0.9 °F 70% 30.45 in 10.0 mi NNW 6.9 mph - N/A   Clear
5:53 AM 6.1 °F - -2.0 °F 69% 30.48 in 10.0 mi Calm Calm - N/A   Clear
6:53 AM 5.0 °F - -2.0 °F 73% 30.51 in 10.0 mi Calm Calm - N/A   Clear
7:53 AM 5.0 °F - -2.0 °F 73% 30.53 in 10.0 mi Calm Calm - N/A   Clear
8:53 AM 3.9 °F -3.4 °F -2.0 °F 76% 30.54 in 10.0 mi ENE 3.5 mph - N/A   Clear
9:53 AM 7.0 °F - -0.9 °F 70% 30.57 in 10.0 mi Calm Calm - N/A   Clear
10:53 AM 8.1 °F - 1.0 °F 73% 30.57 in 10.0 mi Calm Calm - N/A   Clear
11:53 AM 10.9 °F - 1.0 °F 64% 30.56 in 10.0 mi Calm Calm - N/A   Clear
12:53 PM 12.9 °F - 1.9 °F 62% 30.53 in 10.0 mi Calm Calm - N/A   Clear
1:53 PM 15.1 °F - 3.9 °F 61% 30.51 in 10.0 mi Calm Calm - N/A   Clear
2:53 PM 16.0 °F - 5.0 °F 62% 30.50 in 10.0 mi Calm Calm - N/A   Clear
3:53 PM 17.1 °F 6.6 °F 6.1 °F 62% 30.50 in 10.0 mi South 8.1 mph - N/A   Clear
4:53 PM 17.1 °F 8.7 °F 7.0 °F 65% 30.47 in 10.0 mi South 5.8 mph - N/A   Clear
5:53 PM 16.0 °F 10.4 °F 7.0 °F 68% 30.47 in 10.0 mi SSE 3.5 mph - N/A   Clear
6:53 PM 16.0 °F 8.8 °F 7.0 °F 68% 30.44 in 10.0 mi SE 4.6 mph - N/A   Clear
7:53 PM 15.1 °F 7.7 °F 7.0 °F 70% 30.44 in 10.0 mi South 4.6 mph - N/A   Clear
8:53 PM 12.9 °F 2.6 °F 7.0 °F 77% 30.41 in 10.0 mi South 6.9 mph - N/A   Clear
9:53 PM 14.0 °F 5.1 °F 6.1 °F 71% 30.38 in 10.0 mi South 5.8 mph - N/A   Clear
10:53 PM 12.9 °F 5.2 °F 6.1 °F 74% 30.35 in 10.0 mi SSW 4.6 mph - N/A   Clear
11:53 PM 12.0 °F 4.1 °F 5.0 °F 73% 30.33 in 10.0 mi SSW 4.6 mph - N/A   Clear